Greenville/Spartanburg, SC

5:33 AM EDT on April 26, 2018 (GMT -0400)
Greenville-Spartanburg International

Weather History for KGSP - January, 2014

Change the Weather History Date:

Monday, January 6, 2014

  Actual Average Record
Temperature  
Mean Temperature 27 °F 42 °F  
Max Temperature 43 °F 52 °F 71 °F (1955)
Min Temperature 11 °F 32 °F 5 °F (1924)
Degree Days  
Heating Degree Days 38 23  
Month to date heating degree days 191 138  
Since 1 July heating degree days 1354 1341  
Cooling Degree Days 0 0  
Month to date cooling degree days 0 0  
Year to date cooling degree days 0 0  
Moisture  
Dew Point 24 °F    
Average Humidity 66    
Maximum Humidity 100    
Minimum Humidity 32    
Precipitation  
Precipitation 0.09 in 0.12 in 3.94 in (1936)
Month to date precipitation 0.34 0.73  
Year to date precipitation 0.34 0.73  
Snow  
Snow 0.00 in 0.00 in 1.30 in (1996)
Month to date snowfall 0.0 0.3  
Since 1 July snowfall 0.1 0.8  
Snow Depth 0.00 in    
Sea Level Pressure  
Sea Level Pressure 29.88 in    
Wind  
Wind Speed 9 mph (West)    
Max Wind Speed 24 mph    
Max Gust Speed 32 mph    
Visibility 8 miles    
Events Rain    
T = Trace of Precipitation, MM = Missing Value Source: NWS Daily Summary

Daily Weather History Graph

Daily Weather History Graph

Search for Another Location

Airport or City:

Astronomy

Jan. 06, 2014 Rise Set
Actual Time 7:37 AM EST 5:32 PM EST
Civil Twilight 7:09 AM EST 6:00 PM EST
Nautical Twilight 6:37 AM EST 6:31 PM EST
Astronomical Twilight 6:07 AM EST 7:02 PM EST
Moon 11:06 AM EST (1/6) 11:48 PM EST (1/6)
Length of Visible Light 10h 51m
Length of Day
9h 55m
Waxing Crescent, 34% of the Moon is Illuminated
Jan 6
Waxing Crescent
Jan 7
First Quarter
Jan 15
Full
Jan 24
Last Quarter
Jan 30
New

Hourly Weather History & Observations

Time (EST) Temp. Windchill Dew Point Humidity Pressure Visibility Wind Dir Wind Speed Gust Speed Precip Events Conditions
12:36 AM 39.2 °F - 39.2 °F 100% 29.72 in 1.2 mi Calm Calm - N/A   Overcast
12:51 AM 39.2 °F 35.9 °F 39.2 °F 100% 29.72 in 0.8 mi West 4.6 mph - N/A   Mist
12:53 AM 39.9 °F 37.8 °F 39.9 °F 100% 29.73 in 0.8 mi West 3.5 mph - N/A   Mist
1:39 AM 41.0 °F 39.0 °F 41.0 °F 100% 29.69 in 1.0 mi WSW 3.5 mph - 0.01 in   Mist
1:53 AM 41.0 °F 38.0 °F 41.0 °F 100% 29.71 in 0.8 mi West 4.6 mph - 0.02 in Rain Rain
2:06 AM 41.0 °F 38.0 °F 41.0 °F 100% 29.70 in 1.2 mi West 4.6 mph - 0.02 in Rain Rain
2:14 AM 41.0 °F 35.8 °F 39.2 °F 93% 29.71 in 1.5 mi West 8.1 mph - 0.03 in Rain Light Rain
2:21 AM 41.0 °F 35.8 °F 39.2 °F 93% 29.71 in 3.0 mi West 8.1 mph - 0.05 in Rain Rain
2:44 AM 41.0 °F 36.4 °F 41.0 °F 100% 29.70 in 3.0 mi SSW 6.9 mph - 0.06 in Rain Light Rain
2:53 AM 41.0 °F 35.8 °F 39.9 °F 96% 29.71 in 6.0 mi SSW 8.1 mph - 0.06 in Rain Light Rain
3:25 AM 41.0 °F 36.4 °F 41.0 °F 100% 29.69 in 10.0 mi SW 6.9 mph - 0.01 in   Overcast
3:51 AM 42.8 °F 37.0 °F 41.0 °F 93% 29.70 in 10.0 mi SW 10.4 mph - 0.01 in   Overcast
3:53 AM 42.1 °F 36.1 °F 41.0 °F 96% 29.70 in 10.0 mi SW 10.4 mph - 0.01 in   Overcast
4:23 AM 42.8 °F 39.3 °F 42.8 °F 100% 29.69 in 10.0 mi WSW 5.8 mph - N/A   Overcast
4:53 AM 43.0 °F 40.3 °F 42.1 °F 97% 29.69 in 10.0 mi WSW 4.6 mph - N/A   Overcast
5:53 AM 42.1 °F 35.7 °F 41.0 °F 96% 29.71 in 10.0 mi West 11.5 mph - N/A   Overcast
6:53 AM 39.0 °F 34.0 °F 35.1 °F 86% 29.75 in 10.0 mi West 6.9 mph - N/A   Clear
7:24 AM 39.2 °F 34.2 °F 35.6 °F 87% 29.78 in 10.0 mi NW 6.9 mph - N/A   Overcast
7:53 AM 37.0 °F 31.6 °F 28.9 °F 73% 29.81 in 10.0 mi Variable 6.9 mph - N/A   Scattered Clouds
8:53 AM 34.0 °F 27.2 °F 24.1 °F 67% 29.88 in 10.0 mi NNW 8.1 mph - N/A   Scattered Clouds
9:53 AM 34.0 °F 27.2 °F 21.0 °F 59% 29.92 in 10.0 mi NNW 8.1 mph 17.3 mph N/A   Overcast
10:53 AM 35.1 °F 30.1 °F 21.0 °F 57% 29.94 in 10.0 mi NW 5.8 mph - N/A   Mostly Cloudy
11:53 AM 39.0 °F 35.7 °F 21.0 °F 49% 29.93 in 10.0 mi North 4.6 mph - N/A   Clear
12:53 PM 41.0 °F 33.5 °F 19.9 °F 43% 29.91 in 10.0 mi West 13.8 mph 27.6 mph N/A   Clear
1:53 PM 41.0 °F 31.4 °F 16.0 °F 36% 29.92 in 10.0 mi West 21.9 mph 28.8 mph N/A   Clear
2:53 PM 37.0 °F 27.7 °F 10.0 °F 33% 29.95 in 10.0 mi West 16.1 mph 26.5 mph N/A   Clear
3:53 PM 34.0 °F 23.4 °F 7.0 °F 32% 29.97 in 10.0 mi West 17.3 mph 25.3 mph N/A   Clear
4:53 PM 28.0 °F 16.1 °F 5.0 °F 38% 30.02 in 10.0 mi WSW 16.1 mph 29.9 mph N/A   Clear
5:53 PM 25.0 °F 18.1 °F 1.9 °F 37% 30.06 in 10.0 mi West 5.8 mph - N/A   Clear
6:53 PM 19.0 °F 8.2 °F 1.0 °F 46% 30.14 in 10.0 mi NNW 9.2 mph - N/A   Clear
7:53 PM 17.1 °F 6.6 °F -0.9 °F 45% 30.20 in 10.0 mi NW 8.1 mph 17.3 mph N/A   Clear
8:53 PM 15.1 °F 7.7 °F -2.9 °F 45% 30.24 in 10.0 mi North 4.6 mph - N/A   Clear
9:53 PM 14.0 °F 3.9 °F -2.0 °F 49% 30.27 in 10.0 mi North 6.9 mph - N/A   Clear
10:53 PM 12.0 °F 4.1 °F -5.1 °F 46% 30.27 in 10.0 mi NNW 4.6 mph - N/A   Clear
11:53 PM 10.9 °F - -6.0 °F 47% 30.27 in 10.0 mi Calm Calm - N/A   Clear